This is the latest recevied weather packets stored in our database for station/object F1ZRP-13. If no packets are shown the sender has not sent any weather packets the latest 10 day(s).
| Time | Temp. | Humidity | Pressure | Rain* | Wind** | Luminosity | Snow |
|---|---|---|---|---|---|---|---|
| 1777463364 | 19.44° C | 37% | 1022 hPa | - | - | - | - |
| 1777462476 | 18.89° C | 39% | 1022 hPa | - | - | - | - |
| 1777461461 | 18.33° C | 40% | 1022.1 hPa | - | - | - | - |
| 1777460634 | 17.78° C | 40% | 1022 hPa | - | - | - | - |
| 1777459678 | 17.22° C | 41% | 1021.9 hPa | - | - | - | - |
| 1777458601 | 16.67° C | 42% | 1021.9 hPa | - | - | - | - |
| 1777457718 | 16.67° C | 42% | 1021.9 hPa | - | - | - | - |
| 1777456725 | 16.11° C | 43% | 1021.9 hPa | - | - | - | - |
| 1777455740 | 15.56° C | 44% | 1021.9 hPa | - | - | - | - |
| 1777454744 | 15° C | 44% | 1021.8 hPa | - | - | - | - |
| 1777453739 | 14.44° C | 45% | 1021.8 hPa | - | - | - | - |
| 1777452917 | 14.44° C | 47% | 1021.8 hPa | - | - | - | - |
| 1777451566 | 13.33° C | 48% | 1021.7 hPa | - | - | - | - |
| 1777450383 | 12.78° C | 48% | 1021.8 hPa | - | - | - | - |
| 1777449466 | 12.22° C | 50% | 1021.8 hPa | - | - | - | - |
| 1777448533 | 12.22° C | 49% | 1021.8 hPa | - | - | - | - |
| 1777447343 | 11.67° C | 51% | 1021.8 hPa | - | - | - | - |
| 1777446510 | 11.11° C | 51% | 1021.7 hPa | - | - | - | - |
| 1777445741 | 10.56° C | 51% | 1021.7 hPa | - | - | - | - |
| 1777444630 | 10.56° C | 52% | 1021.6 hPa | - | - | - | - |
| 1777443872 | 10° C | 53% | 1021.5 hPa | - | - | - | - |
| 1777443034 | 9.44° C | 53% | 1021.7 hPa | - | - | - | - |
| 1777442094 | 9.44° C | 54% | 1021.6 hPa | - | - | - | - |
| 1777441135 | 9.44° C | 53% | 1021.5 hPa | - | - | - | - |
| 1777440342 | 9.44° C | 53% | 1021.4 hPa | - | - | - | - |
* Rain since midnight (hover to see other rain measurements)
** Current wind speed in m/s (hover to see current wind gust speed)